Weather History for Mount Werner, CO

Change the Weather History Date:

Wednesday, September 11, 2013

  Actual Average Record
Temperature  
Mean Temperature 55 °F -  
Max Temperature 60 °F - - ()
Min Temperature 50 °F - - ()
Degree Days  
Heating Degree Days 10    
Growing Degree Days 5 (Base 50)    
Moisture  
Dew Point 46 °F    
Average Humidity 80    
Maximum Humidity 88    
Minimum Humidity 55    
Precipitation  
Precipitation 0.00 in - - ()
Sea Level Pressure  
Sea Level Pressure 30.50 in    
Wind  
Wind Speed 19 mph (East)    
Max Wind Speed 30 mph    
Max Gust Speed 38 mph    
Visibility 6 miles    
Events Thunderstorm    
T = Trace of Precipitation, MM = Missing Value Source: NWS Daily Summary

Daily Weather History Graph

Daily Weather History Graph

Search for Another Location

Airport:

Trip Planner

Search our weather history database for the weather conditions in past years. The results will help you decide how hot, cold, wet, or windy it might be!

Date:

Astronomy

Sep. 11, 2013 Rise Set
Actual Time 6:44 AM MDT 7:22 PM MDT
Civil Twilight 6:16 AM MDT 7:49 PM MDT
Nautical Twilight 5:44 AM MDT 8:21 PM MDT
Astronomical Twilight 5:10 AM MDT 8:55 PM MDT
Moon 1:16 PM MDT (9/11) 11:19 PM MDT (9/11)
Length of Visible Light 13h 32m
Length of Day
12h 37m
Waxing Crescent, 39% of the Moon is Illuminated
Sep 11
Waxing Crescent
Sep 12
First Quarter
Sep 19
Full
Sep 26
Last Quarter
Oct 4
New

Hourly Weather History & Observations

Time (MDT) Temp. Dew Point Humidity Pressure Visibility Wind Dir Wind Speed Gust Speed Precip Events Conditions
12:15 AM 50.0 °F 44.6 °F 82% 30.45 in 10.0 mi East 28.8 mph 38.0 mph N/A   Overcast
12:35 AM 50.0 °F 44.6 °F 82% 30.45 in 10.0 mi East 25.3 mph 35.7 mph N/A   Overcast
12:55 AM 50.0 °F 44.6 °F 82% 30.45 in 10.0 mi East 26.5 mph 34.5 mph N/A   Overcast
1:15 AM 50.0 °F 44.6 °F 82% 30.46 in 7.0 mi East 25.3 mph 34.5 mph N/A   Overcast
1:35 AM 50.0 °F 44.6 °F 82% 30.46 in 7.0 mi East 24.2 mph 32.2 mph N/A   Overcast
1:55 AM 50.0 °F 44.6 °F 82% 30.46 in 10.0 mi East 25.3 mph 32.2 mph N/A   Overcast
2:15 AM 50.0 °F 44.6 °F 82% 30.45 in 10.0 mi East 26.5 mph 35.7 mph N/A   Overcast
2:35 AM 50.0 °F 44.6 °F 82% 30.45 in 10.0 mi East 29.9 mph 35.7 mph N/A   Overcast
2:55 AM 50.0 °F 44.6 °F 82% 30.45 in 10.0 mi East 25.3 mph 34.5 mph N/A   Overcast
3:15 AM 50.0 °F 44.6 °F 82% 30.45 in 10.0 mi East 24.2 mph 31.1 mph N/A   Overcast
3:35 AM 50.0 °F 44.6 °F 82% 30.45 in 10.0 mi East 24.2 mph 33.4 mph N/A   Overcast
3:55 AM 50.0 °F 44.6 °F 82% 30.45 in 10.0 mi East 21.9 mph 32.2 mph N/A   Overcast
4:15 AM 50.0 °F 44.6 °F 82% 30.45 in 10.0 mi East 21.9 mph 31.1 mph N/A   Overcast
4:35 AM 50.0 °F 44.6 °F 82% 30.45 in 10.0 mi East 20.7 mph 28.8 mph N/A   Overcast
4:55 AM 50.0 °F 44.6 °F 82% 30.45 in 10.0 mi East 19.6 mph 31.1 mph N/A   Overcast
5:15 AM 50.0 °F 44.6 °F 82% 30.46 in 10.0 mi East 18.4 mph 27.6 mph N/A   Overcast
5:35 AM 50.0 °F 44.6 °F 82% 30.46 in 10.0 mi East 20.7 mph 26.5 mph N/A   Overcast
5:55 AM 50.0 °F 44.6 °F 82% 30.46 in 10.0 mi East 18.4 mph 26.5 mph N/A   Overcast
6:15 AM 50.0 °F 44.6 °F 82% 30.47 in 10.0 mi East 18.4 mph 26.5 mph N/A   Overcast
6:35 AM 50.0 °F 44.6 °F 82% 30.47 in 10.0 mi East 23.0 mph 27.6 mph N/A   Overcast
6:55 AM 50.0 °F 44.6 °F 82% 30.48 in 10.0 mi East 21.9 mph 28.8 mph N/A   Overcast
7:15 AM 50.0 °F 44.6 °F 82% 30.48 in 10.0 mi East 21.9 mph 28.8 mph N/A   Overcast
7:35 AM 50.0 °F 44.6 °F 82% 30.48 in 10.0 mi East 20.7 mph 27.6 mph N/A   Overcast
7:55 AM 50.0 °F 44.6 °F 82% 30.48 in 10.0 mi East 19.6 mph - N/A   Overcast
8:15 AM 50.0 °F 44.6 °F 82% 30.49 in 10.0 mi East 19.6 mph 25.3 mph N/A   Overcast
8:35 AM 50.0 °F 44.6 °F 82% 30.50 in 10.0 mi East 18.4 mph 23.0 mph N/A   Overcast
8:55 AM 51.8 °F 44.6 °F 76% 30.50 in 10.0 mi East 17.3 mph 24.2 mph N/A   Mostly Cloudy
9:15 AM 51.8 °F 44.6 °F 76% 30.49 in 10.0 mi East 16.1 mph 23.0 mph N/A   Scattered Clouds
9:35 AM 53.6 °F 44.6 °F 72% 30.49 in 10.0 mi East 18.4 mph 25.3 mph N/A   Scattered Clouds
9:55 AM 53.6 °F 46.4 °F 77% 30.50 in 10.0 mi East 17.3 mph 21.9 mph N/A   Scattered Clouds
10:15 AM 55.4 °F 46.4 °F 72% 30.51 in 10.0 mi ESE 9.2 mph 19.6 mph N/A   Scattered Clouds
10:35 AM 55.4 °F 44.6 °F 67% 30.51 in 10.0 mi East 15.0 mph 23.0 mph N/A   Scattered Clouds
10:55 AM 55.4 °F 44.6 °F 67% 30.52 in 10.0 mi ESE 11.5 mph 20.7 mph N/A   Mostly Cloudy
11:15 AM 55.4 °F 44.6 °F 67% 30.52 in 10.0 mi East 12.7 mph 20.7 mph N/A   Overcast
11:35 AM 53.6 °F 46.4 °F 77% 30.52 in 10.0 mi East 15.0 mph 18.4 mph N/A   Mostly Cloudy
11:55 AM 55.4 °F 44.6 °F 67% 30.52 in 10.0 mi East 12.7 mph 19.6 mph N/A   Scattered Clouds
12:15 PM 55.4 °F 44.6 °F 67% 30.52 in 10.0 mi East 11.5 mph 20.7 mph N/A   Scattered Clouds
12:35 PM 57.2 °F 44.6 °F 63% 30.52 in 10.0 mi East 11.5 mph 17.3 mph N/A   Mostly Cloudy
12:55 PM 59.0 °F 44.6 °F 59% 30.52 in 10.0 mi East 10.4 mph 18.4 mph N/A   Mostly Cloudy
1:15 PM 59.0 °F 44.6 °F 59% 30.51 in 10.0 mi East 9.2 mph 16.1 mph N/A Thunderstorm Overcast
1:35 PM 60.8 °F 44.6 °F 55% 30.50 in 10.0 mi ESE 8.1 mph - N/A   Overcast
1:55 PM 59.0 °F 44.6 °F 59% 30.50 in 10.0 mi East 4.6 mph - N/A Thunderstorm Overcast
2:15 PM 57.2 °F 44.6 °F 63% 30.50 in 10.0 mi ESE 4.6 mph - N/A   Overcast
2:35 PM 55.4 °F 50.0 °F 82% 30.50 in 0.2 mi NW 4.6 mph - N/A   Overcast
2:55 PM 53.6 °F 50.0 °F 88% 30.50 in 0.2 mi NNW 4.6 mph - N/A Thunderstorm Overcast
3:15 PM 53.6 °F 50.0 °F 88% 30.50 in 0.2 mi NNW 3.5 mph - N/A Thunderstorm Overcast
3:35 PM 53.6 °F 50.0 °F 88% 30.50 in 0.2 mi WNW 3.5 mph - N/A Thunderstorm Overcast
3:55 PM 53.6 °F 50.0 °F 88% 30.50 in 0.2 mi Calm Calm - N/A   Overcast
4:15 PM 53.6 °F 50.0 °F 88% 30.50 in 0.2 mi SW 8.1 mph - N/A Thunderstorm Thunderstorm
4:35 PM 53.6 °F 50.0 °F 88% 30.50 in 0.2 mi SW 4.6 mph - N/A Thunderstorm Overcast
4:55 PM 50.0 °F 46.4 °F 87% 30.50 in 3.0 mi ESE 11.5 mph - N/A Thunderstorm Overcast
5:15 PM 50.0 °F 44.6 °F 82% 30.50 in 1.2 mi ENE 5.8 mph 13.8 mph N/A Thunderstorm Thunderstorm
5:35 PM 50.0 °F 46.4 °F 87% 30.50 in 4.0 mi NE 9.2 mph - N/A Thunderstorm Overcast
5:55 PM 50.0 °F 46.4 °F 87% 30.52 in 2.5 mi NNE 10.4 mph - N/A   Overcast
6:15 PM 50.0 °F 46.4 °F 87% 30.52 in 3.0 mi NNE 10.4 mph 16.1 mph N/A Thunderstorm Overcast
6:35 PM 50.0 °F 46.4 °F 87% 30.52 in 5.0 mi NE 10.4 mph - N/A   Overcast
6:55 PM 50.0 °F 46.4 °F 87% 30.52 in 2.5 mi NNE 9.2 mph - N/A   Overcast
7:15 PM 50.0 °F 46.4 °F 87% 30.51 in 4.0 mi North 15.0 mph 21.9 mph N/A Thunderstorm Overcast
7:35 PM 50.0 °F 46.4 °F 87% 30.52 in 4.0 mi NNE 9.2 mph 21.9 mph N/A Thunderstorm Thunderstorm
7:55 PM 50.0 °F 46.4 °F 87% 30.52 in 0.5 mi NE 11.5 mph 19.6 mph N/A Thunderstorm Overcast
8:15 PM 50.0 °F 46.4 °F 87% 30.52 in 0.5 mi NE 9.2 mph 24.2 mph N/A   Overcast
8:35 PM 50.0 °F 46.4 °F 87% 30.52 in 0.8 mi ENE 11.5 mph 20.7 mph N/A Thunderstorm Overcast
8:55 PM 50.0 °F 46.4 °F 87% 30.53 in 0.5 mi ENE 13.8 mph 23.0 mph N/A   Overcast
9:15 PM 50.0 °F 46.4 °F 87% 30.53 in 0.2 mi NE 15.0 mph 21.9 mph N/A   Overcast
9:35 PM 50.0 °F 46.4 °F 87% 30.53 in 0.2 mi ENE 15.0 mph 21.9 mph N/A   Overcast
9:55 PM 50.0 °F 46.4 °F 87% 30.53 in 0.2 mi ENE 18.4 mph 23.0 mph N/A   Overcast
10:15 PM 50.0 °F 46.4 °F 87% 30.54 in 0.5 mi ENE 13.8 mph 21.9 mph N/A   Overcast
10:35 PM 50.0 °F 46.4 °F 87% 30.54 in 0.5 mi East 11.5 mph 18.4 mph N/A   Overcast
10:55 PM 50.0 °F 46.4 °F 87% 30.54 in 0.5 mi ENE 12.7 mph 24.2 mph N/A   Overcast
11:15 PM 50.0 °F 46.4 °F 87% 30.54 in 0.5 mi ENE 11.5 mph 20.7 mph N/A   Overcast
11:35 PM 50.0 °F 46.4 °F 87% 30.53 in 0.5 mi East 17.3 mph 23.0 mph N/A   Overcast
11:55 PM 50.0 °F 46.4 °F 87% 30.53 in 0.5 mi ENE 17.3 mph 24.2 mph N/A   Overcast